Satellite: ISS
Catalog number: 25544
Epoch time:      10066.48187660
Element set:     721
Inclination:      051.6482 deg
RA of node:       032.7439 deg
Eccentricity:    0.0007757
Arg of perigee:   023.0370 deg
Mean anomaly:     074.9567 deg
Mean motion:   15.73705588 rev/day
Decay rate:     1.4123e-04 rev/day^2
Epoch rev:           64745
Checksum:              309

Satellite: CO-58
Catalog number: 28895
Epoch time:      10067.63944091
Element set:    0530
Inclination:      098.0271 deg
RA of node:       315.3687 deg
Eccentricity:    0.0016921
Arg of perigee:   238.1906 deg
Mean anomaly:     121.7657 deg
Mean motion:   14.59855613 rev/day
Decay rate:        7.4e-07 rev/day^2
Epoch rev:           23231
Checksum:              320

Satellite: FALCON
Catalog number: 30776
Epoch time:      10065.89131473
Element set:     779
Inclination:      035.4345 deg
RA of node:       305.2874 deg
Eccentricity:    0.0001717
Arg of perigee:   343.4872 deg
Mean anomaly:     016.5788 deg
Mean motion:   15.03507708 rev/day
Decay rate:       7.04e-06 rev/day^2
Epoch rev:           16465
Checksum:              307

Satellite: MAST
Catalog number: 31126
Epoch time:      10067.78935783
Element set:    0814
Inclination:      097.9504 deg
RA of node:       114.9330 deg
Eccentricity:    0.0094474
Arg of perigee:   177.5470 deg
Mean anomaly:     182.6183 deg
Mean motion:   14.53560879 rev/day
Decay rate:        6.6e-07 rev/day^2
Epoch rev:           15347
Checksum:              323

Satellite: CAPE1
Catalog number: 31130
Epoch time:      10067.53675659
Element set:    0832
Inclination:      097.9499 deg
RA of node:       112.3033 deg
Eccentricity:    0.0102494
Arg of perigee:   185.8109 deg
Mean anomaly:     174.1921 deg
Mean motion:   14.52144186 rev/day
Decay rate:       1.97e-06 rev/day^2
Epoch rev:           15305
Checksum:              295

Satellite: COMPASS
Catalog number: 32787
Epoch time:      10066.61121754
Element set:    0614
Inclination:      097.9046 deg
RA of node:       132.7210 deg
Eccentricity:    0.0014822
Arg of perigee:   254.8566 deg
Mean anomaly:     105.1033 deg
Mean motion:   14.81781113 rev/day
Decay rate:       5.97e-06 rev/day^2
Epoch rev:           10045
Checksum:              270

Satellite: AAUSAT2
Catalog number: 32788
Epoch time:      10067.43414337
Element set:    0610
Inclination:      097.9079 deg
RA of node:       133.6431 deg
Eccentricity:    0.0013870
Arg of perigee:   252.7227 deg
Mean anomaly:     107.2438 deg
Mean motion:   14.81918785 rev/day
Decay rate:       6.61e-06 rev/day^2
Epoch rev:           10058
Checksum:              301

Satellite: DO-64
Catalog number: 32789
Epoch time:      10065.89797618
Element set:     623
Inclination:      097.9107 deg
RA of node:       132.4892 deg
Eccentricity:    0.0014672
Arg of perigee:   256.9700 deg
Mean anomaly:     102.9844 deg
Mean motion:   14.81998471 rev/day
Decay rate:      1.078e-05 rev/day^2
Epoch rev:           10035
Checksum:              342

Satellite: CO-66
Catalog number: 32791
Epoch time:      10065.40323763
Element set:     603
Inclination:      097.9067 deg
RA of node:       131.5534 deg
Eccentricity:    0.0014983
Arg of perigee:   258.6058 deg
Mean anomaly:     101.3481 deg
Mean motion:   14.81580913 rev/day
Decay rate:       2.62e-06 rev/day^2
Epoch rev:           10023
Checksum:              286

Satellite: RS-30
Catalog number: 32953
Epoch time:      10067.59796295
Element set:    0543
Inclination:      082.4975 deg
RA of node:       092.2354 deg
Eccentricity:    0.0018125
Arg of perigee:   326.1040 deg
Mean anomaly:     033.8886 deg
Mean motion:   12.43004126 rev/day
Decay rate:        1.0e-07 rev/day^2
Epoch rev:           08124
Checksum:              282

Satellite: TACSAT-3
Catalog number: 35001
Epoch time:      10066.51435938
Element set:     232
Inclination:      040.4553 deg
RA of node:       104.3727 deg
Eccentricity:    0.0023351
Arg of perigee:   322.0728 deg
Mean anomaly:     037.8441 deg
Mean motion:   15.40591047 rev/day
Decay rate:      5.970e-05 rev/day^2
Epoch rev:            4494
Checksum:              267

Satellite: PHARMSAT
Catalog number: 35002
Epoch time:      10066.24672703
Element set:     220
Inclination:      040.4695 deg
RA of node:       104.3829 deg
Eccentricity:    0.0026386
Arg of perigee:   323.8566 deg
Mean anomaly:     036.0466 deg
Mean motion:   15.41221037 rev/day
Decay rate:      5.264e-05 rev/day^2
Epoch rev:            4491
Checksum:              265

Satellite: HAWKSAT1
Catalog number: 35003
Epoch time:      10066.19738930
Element set:     232
Inclination:      040.4618 deg
RA of node:       101.9687 deg
Eccentricity:    0.0024726
Arg of perigee:   332.0065 deg
Mean anomaly:     027.9415 deg
Mean motion:   15.43153776 rev/day
Decay rate:     1.0480e-04 rev/day^2
Epoch rev:            4494
Checksum:              278

Satellite: CP6
Catalog number: 35004
Epoch time:      10067.46658570
Element set:    0228
Inclination:      040.4624 deg
RA of node:       093.9987 deg
Eccentricity:    0.0023755
Arg of perigee:   342.0491 deg
Mean anomaly:     017.9483 deg
Mean motion:   15.43616859 rev/day
Decay rate:     1.2303e-04 rev/day^2
Epoch rev:           04513
Checksum:              304

